Colby, KS

11:28 AM CST on February 09, 2016 (GMT -0600)
Shaltz

Weather History for KCBK - March, 2014

Change the Weather History Date:

Thursday, March 13, 2014

  Actual Average (KGLD) Record (KGLD)
Temperature  
Mean Temperature 44 °F 40 °F  
Max Temperature 68 °F 54 °F 78 °F (2012)
Min Temperature 19 °F 26 °F -1 °F (1958)
Degree Days  
Heating Degree Days 22 25  
Month to date heating degree days 350  
Since 1 July heating degree days 4767  
Cooling Degree Days 0 0  
Month to date cooling degree days 0  
Year to date cooling degree days 0  
Moisture  
Dew Point 21 °F    
Average Humidity 50    
Maximum Humidity 93    
Minimum Humidity 16    
Precipitation  
Precipitation 0.00 in 0.03 in 0.34 in (1924)
Month to date precipitation 0.37  
Year to date precipitation 1.24  
Snow  
Snow 0.00 in 0.20 in - ()
Month to date snowfall 2.5  
Since 1 July snowfall 26.5  
Snow Depth -    
Sea Level Pressure  
Sea Level Pressure 29.96 in    
Wind  
Wind Speed 10 mph (WSW)    
Max Wind Speed 23 mph    
Max Gust Speed 29 mph    
Visibility 10 miles    
Events      
T = Trace of Precipitation, MM = Missing Value Source: NWS Daily Summary

Daily Weather History Graph

Daily Weather History Graph

Search for Another Location

Airport or City:

Trip Planner

Search our weather history database for the weather conditions in past years. The results will help you decide how hot, cold, wet, or windy it might be!

Date:

Astronomy

Mar. 13, 2014 Rise Set
Actual Time 7:58 AM CDT 7:49 PM CDT
Civil Twilight 7:31 AM CDT 8:15 PM CDT
Nautical Twilight 7:00 AM CDT 8:47 PM CDT
Astronomical Twilight 6:29 AM CDT 9:18 PM CDT
Moon 5:17 PM CDT (3/13) 6:05 AM CDT (3/13)
Length of Visible Light 12h 44m
Length of Day
11h 50m
Waxing Gibbous, 91% of the Moon is Illuminated
Mar 13
Waxing Gibbous
Mar 16
Full
Mar 23
Last Quarter
Mar 30
New
Apr 7
First Quarter

Hourly Weather History & Observations

Time (CDT) Temp. Windchill Dew Point Humidity Pressure Visibility Wind Dir Wind Speed Gust Speed Precip Events Conditions
12:10 AM 26.6 °F 20.0 °F 19.4 °F 74% 30.17 in 10.0 mi West 5.8 mph - N/A   Clear
12:30 AM 24.8 °F 15.3 °F 21.2 °F 86% 30.17 in 10.0 mi West 9.2 mph - N/A   Clear
12:50 AM 26.6 °F 19.1 °F 21.2 °F 80% 30.17 in 10.0 mi West 6.9 mph - N/A   Clear
1:10 AM 26.6 °F 17.5 °F 21.2 °F 80% 30.17 in 10.0 mi West 9.2 mph - N/A   Clear
1:30 AM 24.8 °F 17.9 °F 21.2 °F 86% 30.16 in 10.0 mi West 5.8 mph - N/A   Clear
1:50 AM 26.6 °F 17.5 °F 21.2 °F 80% 30.16 in 10.0 mi West 9.2 mph - N/A   Clear
2:10 AM 26.6 °F 18.2 °F 21.2 °F 80% 30.15 in 10.0 mi West 8.1 mph - N/A   Clear
2:30 AM 24.8 °F 15.3 °F 21.2 °F 86% 30.15 in 10.0 mi WSW 9.2 mph - N/A   Clear
2:50 AM 24.8 °F 16.1 °F 21.2 °F 86% 30.15 in 10.0 mi SW 8.1 mph - N/A   Clear
3:10 AM 24.8 °F 16.1 °F 21.2 °F 86% 30.14 in 10.0 mi West 8.1 mph - N/A   Clear
3:30 AM 26.6 °F 18.2 °F 21.2 °F 80% 30.14 in 10.0 mi West 8.1 mph - N/A   Clear
3:50 AM 24.8 °F 16.1 °F 21.2 °F 86% 30.13 in 10.0 mi West 8.1 mph - N/A   Clear
4:10 AM 24.8 °F 15.3 °F 21.2 °F 86% 30.12 in 10.0 mi West 9.2 mph - N/A   Clear
4:30 AM 24.8 °F 15.3 °F 21.2 °F 86% 30.12 in 10.0 mi West 9.2 mph - N/A   Clear
4:50 AM 24.8 °F 16.9 °F 21.2 °F 86% 30.10 in 10.0 mi West 6.9 mph - N/A   Clear
5:10 AM 24.8 °F 16.1 °F 21.2 °F 86% 30.10 in 10.0 mi West 8.1 mph - N/A   Clear
5:30 AM 23.0 °F 13.9 °F 19.4 °F 86% 30.10 in 10.0 mi WNW 8.1 mph - N/A   Clear
5:50 AM 23.0 °F 14.7 °F 19.4 °F 86% 30.09 in 10.0 mi West 6.9 mph - N/A   Clear
6:10 AM 21.2 °F 11.7 °F 17.6 °F 86% 30.09 in 10.0 mi WSW 8.1 mph - N/A   Clear
6:30 AM 21.2 °F 12.6 °F 17.6 °F 86% 30.09 in 10.0 mi WSW 6.9 mph - N/A   Clear
6:50 AM 23.0 °F 14.7 °F 19.4 °F 86% 30.09 in 10.0 mi West 6.9 mph - N/A   Clear
7:10 AM 23.0 °F 14.7 °F 19.4 °F 86% 30.08 in 10.0 mi West 6.9 mph - N/A   Clear
7:30 AM 19.4 °F 10.4 °F 17.6 °F 93% 30.08 in 10.0 mi WSW 6.9 mph - N/A   Clear
7:50 AM 19.4 °F 9.5 °F 17.6 °F 93% 30.07 in 10.0 mi WSW 8.1 mph - N/A   Clear
8:10 AM 19.4 °F 11.5 °F 17.6 °F 93% 30.07 in 10.0 mi West 5.8 mph - N/A   Clear
8:30 AM 23.0 °F 15.8 °F 19.4 °F 86% 30.07 in 10.0 mi West 5.8 mph - N/A   Clear
8:50 AM 26.6 °F 21.2 °F 21.2 °F 80% 30.07 in 10.0 mi WSW 4.6 mph - N/A   Clear
9:10 AM 32.0 °F 26.4 °F 24.8 °F 75% 30.07 in 10.0 mi WSW 5.8 mph - N/A   Clear
9:30 AM 35.6 °F 31.7 °F 26.6 °F 70% 30.07 in 10.0 mi SW 4.6 mph - N/A   Clear
9:50 AM 37.4 °F 32.8 °F 26.6 °F 65% 30.07 in 10.0 mi SW 5.8 mph - N/A   Clear
10:10 AM 42.8 °F 38.6 °F 26.6 °F 53% 30.06 in 10.0 mi SW 6.9 mph - N/A   Clear
10:30 AM 48.2 °F - 26.6 °F 43% 30.06 in 10.0 mi SSW 8.1 mph - N/A   Clear
10:50 AM 51.8 °F - 24.8 °F 35% 30.05 in 10.0 mi SSW 10.4 mph - N/A   Clear
11:10 AM 55.4 °F - 24.8 °F 31% 30.03 in 10.0 mi South 12.7 mph 16.1 mph N/A   Clear
11:30 AM 55.4 °F - 21.2 °F 26% 30.02 in 10.0 mi SSW 15.0 mph - N/A   Clear
11:50 AM 59.0 °F - 21.2 °F 23% 30.01 in 10.0 mi South 12.7 mph 18.4 mph N/A   Clear
12:10 PM 59.0 °F - 21.2 °F 23% 30.00 in 10.0 mi South 16.1 mph 20.7 mph N/A   Clear
12:30 PM 60.8 °F - 21.2 °F 22% 29.98 in 10.0 mi South 15.0 mph 21.9 mph N/A   Clear
12:50 PM 60.8 °F - 21.2 °F 22% 29.97 in 10.0 mi South 16.1 mph 20.7 mph N/A   Clear
1:10 PM 62.6 °F - 21.2 °F 20% 29.95 in 10.0 mi South 13.8 mph 19.6 mph N/A   Clear
1:30 PM 64.4 °F - 23.0 °F 21% 29.93 in 10.0 mi South 15.0 mph - N/A   Clear
1:50 PM 66.2 °F - 19.4 °F 17% 29.91 in 10.0 mi South 17.3 mph 24.2 mph N/A   Clear
2:10 PM 68.0 °F - 21.2 °F 17% 29.90 in 10.0 mi SSW 17.3 mph 27.6 mph N/A   Clear
2:30 PM 66.2 °F - 19.4 °F 17% 29.88 in 10.0 mi SSW 17.3 mph 23.0 mph N/A   Clear
2:50 PM 66.2 °F - 19.4 °F 17% 29.87 in 10.0 mi South 17.3 mph - N/A   Clear
3:10 PM 68.0 °F - 19.4 °F 16% 29.85 in 10.0 mi South 17.3 mph 23.0 mph N/A   Clear
3:30 PM 68.0 °F - 19.4 °F 16% 29.84 in 10.0 mi SSW 16.1 mph 23.0 mph N/A   Clear
3:50 PM 68.0 °F - 19.4 °F 16% 29.82 in 10.0 mi SSW 19.6 mph 24.2 mph N/A   Clear
4:10 PM 68.0 °F - 19.4 °F 16% 29.81 in 10.0 mi SSW 16.1 mph 24.2 mph N/A   Clear
4:30 PM 68.0 °F - 21.2 °F 17% 29.79 in 10.0 mi SW 23.0 mph 28.8 mph N/A   Clear
4:50 PM 68.0 °F - 23.0 °F 18% 29.79 in 10.0 mi SSW 18.4 mph 27.6 mph N/A   Clear
5:10 PM 68.0 °F - 23.0 °F 18% 29.78 in 10.0 mi SW 15.0 mph 23.0 mph N/A   Clear
5:30 PM 68.0 °F - 23.0 °F 18% 29.76 in 10.0 mi SW 16.1 mph - N/A   Clear
5:50 PM 68.0 °F - 23.0 °F 18% 29.75 in 10.0 mi SW 13.8 mph 25.3 mph N/A   Clear
6:10 PM 68.0 °F - 23.0 °F 18% 29.74 in 10.0 mi SW 11.5 mph - N/A   Clear
6:30 PM 66.2 °F - 23.0 °F 19% 29.73 in 10.0 mi SW 13.8 mph 18.4 mph N/A   Clear
6:50 PM 64.4 °F - 21.2 °F 19% 29.73 in 10.0 mi SSW 13.8 mph 21.9 mph N/A   Clear
7:10 PM 62.6 °F - 21.2 °F 20% 29.73 in 10.0 mi West 9.2 mph - N/A   Clear
7:30 PM 59.0 °F - 19.4 °F 22% 29.74 in 10.0 mi West 11.5 mph - N/A   Clear
7:50 PM 53.6 °F - 17.6 °F 24% 29.74 in 10.0 mi West 10.4 mph - N/A   Clear
8:10 PM 50.0 °F - 19.4 °F 30% 29.74 in 10.0 mi West 12.7 mph - N/A   Clear
8:30 PM 50.0 °F - 17.6 °F 28% 29.74 in 10.0 mi WNW 10.4 mph - N/A   Clear
8:50 PM 44.6 °F 39.2 °F 17.6 °F 34% 29.75 in 10.0 mi West 10.4 mph - N/A   Clear
9:10 PM 44.6 °F 38.8 °F 17.6 °F 34% 29.75 in 10.0 mi WNW 11.5 mph - N/A   Clear
9:30 PM 46.4 °F 41.1 °F 19.4 °F 34% 29.75 in 10.0 mi WNW 11.5 mph - N/A   Clear
9:50 PM 44.6 °F 39.7 °F 19.4 °F 37% 29.76 in 10.0 mi WSW 9.2 mph - N/A   Clear
10:10 PM 42.8 °F 37.5 °F 19.4 °F 39% 29.77 in 10.0 mi WSW 9.2 mph - N/A   Clear
10:30 PM 41.0 °F 34.7 °F 21.2 °F 45% 29.78 in 10.0 mi West 10.4 mph - N/A   Clear
10:50 PM 41.0 °F 34.7 °F 19.4 °F 42% 29.78 in 10.0 mi West 10.4 mph - N/A   Clear
11:10 PM 41.0 °F 34.7 °F 21.2 °F 45% 29.78 in 10.0 mi West 10.4 mph - N/A   Clear
11:30 PM 37.4 °F 29.8 °F 21.2 °F 52% 29.79 in 10.0 mi West 11.5 mph - N/A   Clear
11:50 PM 42.8 °F 35.8 °F 21.2 °F 42% 29.80 in 10.0 mi WNW 13.8 mph - N/A   Clear